Wind_Speed
29 30 32 32 30 29 30 26 25 25 24 26 24 21 21 21 21 16 14 12 15 11 18 18 38 61 31 33 52 54 56 64 64 65 65 68 68 65 64 71 73 74 76 79
29 32 32 32 32 32 32 29 28 27 26 29 26 28 24 21 19 16 17 16 16 11 4 8 43 12 43 53 53 56 59 66 71 69 70 70 66 67 71 76 76 77 78 79
33 34 32 33 36 34 33 32 31 30 29 30 30 27 28 27 23 21 21 22 20 13 16 8 39 46 54 57 60 63 67 71 76 77 75 72 72 76 78 78 80 79 80 81
34 34 33 36 36 36 36 35 33 34 33 31 33 30 31 28 26 27 24 28 28 28 23 26 36 46 54 60 66 70 72 76 79 79 79 82 84 84 85 84 83 85 85 86
37 35 34 36 38 37 38 36 35 36 32 33 34 34 35 31 30 31 31 34 34 38 38 37 43 49 58 65 69 71 74 77 79 80 83 85 86 86 87 88 88 86 82 76
40 37 35 38 39 39 39 37 36 34 34 33 35 37 38 34 32 29 35 41 41 44 47 49 52 56 62 67 70 73 77 80 80 83 86 86 86 87 89 85 78 76 76 74
46 42 40 40 39 38 39 38 37 35 34 34 39 40 42 39 37 37 40 45 48 49 51 54 57 61 64 68 72 76 78 79 82 86 85 85 87 82 75 71 71 72 72 70
47 45 44 44 41 40 40 39 39 38 39 41 39 42 45 40 43 40 44 47 48 51 54 57 60 64 68 71 74 76 78 84 85 84 86 84 76 70 66 65 67 68 68 64
49 49 50 45 46 43 43 42 45 41 41 43 46 48 46 44 45 49 47 49 51 52 55 59 64 67 71 73 74 78 83 83 84 83 76 72 67 62 60 63 63 63 59 53
55 51 51 50 49 46 45 49 48 45 45 47 50 50 49 47 45 49 51 53 54 57 60 64 68 70 72 75 78 81 82 83 79 74 70 64 59 60 60 61 61 58 53 40
61 55 53 51 50 54 50 49 48 49 47 49 50 58 51 50 48 50 52 54 60 61 65 67 69 71 74 79 80 80 82 77 73 69 59 57 58 58 59 60 58 57 52 40
66 59 56 54 52 56 54 52 53 51 52 51 52 59 56 54 54 52 57 57 59 66 67 69 71 75 78 78 79 78 73 69 64 56 56 56 58 59 61 60 59 56 51 39
67 60 60 59 55 56 57 57 55 52 52 52 53 53 61 55 59 59 62 63 61 69 67 71 74 76 76 77 74 71 65 57 57 54 55 58 60 63 64 64 60 58 52 41
75 67 58 58 59 60 60 59 56 55 54 55 55 57 58 55 57 58 62 64 64 65 73 74 74 73 73 70 68 62 58 58 58 55 59 60 62 65 68 68 59 59 49 43
78 72 69 63 62 61 59 59 60 59 58 58 59 61 59 58 57 53 35 53 58 74 74 71 70 69 66 64 60 57 57 58 57 58 60 62 65 68 72 68 60 55 42 39
82 74 76 73 72 69 66 63 59 60 62 61 61 65 61 61 58 60 63 75 71 67 71 69 66 65 61 58 55 56 56 57 58 60 62 64 67 70 71 63 58 45 35 37
83 78 78 71 74 75 74 69 69 65 61 63 65 67 62 64 63 66 70 73 66 63 65 64 63 60 56 56 55 56 57 57 59 62 63 66 70 72 68 59 53 40 32 29
77 77 77 75 79 79 67 72 69 70 69 66 69 69 71 66 67 66 65 67 63 62 60 60 58 54 55 56 55 57 57 58 62 64 66 70 71 70 61 58 48 38 33 35
71 75 75 76 78 74 75 71 72 72 72 72 69 68 70 59 64 64 58 60 59 57 58 54 52 54 55 56 57 58 59 61 62 66 69 72 68 63 60 56 45 38 35 38
65 67 68 71 75 71 69 67 67 67 68 65 68 62 61 58 58 54 58 56 56 56 52 52 53 54 55 58 59 61 61 61 64 68 75 70 65 61 59 54 44 38 38 39
40 42 49 53 53 59 62 62 61 62 66 59 54 51 54 57 55 55 52 55 55 52 50 52 53 56 57 59 60 61 62 63 66 70 75 65 61 60 57 50 44 36 35 36
68 66 71 67 73 62 52 55 52 51 59 59 59 53 55 57 52 52 51 51 50 50 51 53 54 56 58 59 60 61 63 65 68 76 68 63 60 57 53 43 33 29 33 35
69 62 66 64 55 58 56 58 54 57 63 65 62 51 53 54 52 52 51 49 49 50 52 53 56 57 57 60 60 63 65 66 68 75 62 60 57 53 45 34 27 27 28 29
71 69 73 75 62 58 54 56 54 57 58 56 54 55 54 52 50 49 48 49 51 52 52 53 56 57 59 62 63 64 66 69 71 70 60 57 55 50 42 32 29 26 28 33
71 70 71 70 65 58 58 63 61 62 61 60 55 54 50 51 50 50 50 52 53 52 52 54 55 58 62 65 65 66 67 69 73 65 60 57 54 51 39 32 33 30 34 39
76 71 76 79 64 63 61 57 66 66 65 64 56 54 53 53 52 52 52 53 54 55 56 56 57 60 64 66 66 66 67 68 72 64 61 55 52 49 36 34 37 42 43 41
Wind_Direction
240 240 242 245 248 252 255 260 265 270 269 268 271 263 259 256 257 257 257 260 259 278 299 262 258 295 268 283 311 314 313 309 310 310 309 310 312 314 309 307 306 303 303 301
243 244 243 242 247 252 257 260 263 265 262 269 274 281 279 266 262 259 261 254 264 285 182 337 190 106 273 292 308 312 309 307 309 308 309 308 307 304 305 306 306 304 302 302
241 245 246 245 247 250 254 258 263 266 264 263 271 275 274 274 273 270 272 271 272 256 259 270 199 256 286 302 307 306 304 303 305 306 306 306 305 305 306 307 306 306 304 302
243 244 243 247 250 252 254 258 263 262 260 261 270 265 266 273 273 278 276 275 277 272 253 261 261 268 290 299 302 303 302 304 306 307 309 311 312 311 311 310 307 305 303 301
244 246 243 246 248 253 254 256 256 258 261 263 267 263 268 266 264 280 280 279 282 285 285 277 278 283 287 292 296 299 302 305 307 309 311 311 310 310 310 309 308 306 305 304
245 246 243 243 245 248 252 254 256 258 258 261 262 261 263 268 266 272 272 280 285 287 288 290 290 289 291 295 298 302 305 309 310 310 310 310 310 310 309 308 307 305 304 304
241 243 244 245 246 248 250 253 256 257 259 257 259 262 263 267 272 273 271 277 281 285 288 291 292 294 296 300 303 305 308 308 308 309 310 309 309 309 309 307 307 307 308 308
243 244 244 245 246 246 249 252 257 256 258 260 264 268 265 272 274 277 276 281 287 289 292 294 296 298 301 303 305 307 306 307 310 310 310 310 311 310 309 311 313 313 312 310
242 242 245 246 247 248 248 253 254 256 258 262 266 269 272 275 279 286 287 288 290 293 294 296 300 301 303 305 306 305 308 309 309 311 311 311 310 311 313 315 316 316 315 312
241 241 245 245 248 250 249 250 256 258 260 264 269 270 273 278 283 285 291 293 293 294 297 299 299 303 305 305 306 308 309 310 311 312 311 311 315 315 317 316 317 319 318 309
243 243 243 245 247 250 252 255 256 260 264 267 270 275 282 281 280 284 287 288 294 295 296 298 301 303 304 306 308 308 309 312 312 311 311 315 317 319 318 317 320 322 319 308
245 244 241 244 246 249 255 257 259 260 264 267 272 279 280 284 286 285 289 292 292 293 297 300 301 303 306 307 308 310 312 312 310 311 314 316 318 320 322 318 319 319 315 303
245 245 243 244 247 251 253 253 257 263 266 270 272 274 278 283 288 288 290 294 292 294 297 301 302 305 306 307 309 311 311 309 311 314 316 316 316 318 319 321 317 318 313 297
242 245 247 250 248 248 253 257 257 260 265 269 272 271 275 285 287 295 302 299 295 295 301 302 304 303 307 309 310 309 309 311 314 316 315 316 316 319 321 322 317 315 306 291
243 242 242 246 248 247 249 254 255 258 261 266 271 274 278 280 285 288 286 281 290 300 299 302 302 306 307 308 308 310 312 313 315 315 315 315 318 319 322 321 319 315 301 292
242 242 243 243 248 250 251 252 255 262 263 268 271 273 278 279 279 279 279 281 290 297 299 300 304 304 306 306 310 313 314 315 315 315 316 317 320 321 323 320 321 312 296 295
241 242 245 246 249 251 251 256 258 259 265 269 269 273 277 280 282 285 285 288 293 294 296 300 301 303 305 309 313 314 315 316 316 317 318 320 321 322 322 320 320 308 295 292
242 244 246 245 247 251 254 255 259 261 262 264 267 272 273 276 280 280 284 290 291 295 297 298 300 301 306 310 312 314 314 314 317 318 320 321 321 321 321 321 318 304 291 286
242 244 246 247 249 250 252 256 258 261 263 266 269 273 276 276 280 283 287 287 294 295 297 298 298 303 307 309 311 312 314 316 318 321 322 322 320 320 319 320 315 299 294 291
240 246 251 251 253 251 253 257 259 262 265 266 268 269 272 276 278 281 286 288 291 294 296 295 300 303 306 309 311 312 314 316 319 322 324 322 320 319 320 319 312 295 291 289
225 234 243 238 245 248 252 254 260 263 262 266 266 273 276 276 278 282 284 288 292 294 293 294 298 301 306 309 311 313 315 316 319 322 323 321 319 319 320 316 311 293 292 294
230 226 234 245 254 250 251 253 251 251 253 258 265 270 274 275 278 280 283 285 289 290 292 295 300 303 307 309 311 313 312 316 320 324 323 321 319 321 322 317 314 301 296 304
230 232 235 237 244 250 248 253 256 252 256 261 267 270 270 274 278 279 282 284 287 290 293 296 299 304 308 308 310 312 314 317 319 324 323 321 322 324 325 317 318 308 301 314
228 231 237 243 249 254 254 253 249 251 257 261 267 269 271 275 277 280 283 284 286 291 295 296 300 305 307 308 309 312 315 319 320 324 322 321 322 323 319 308 308 309 312 311
231 238 244 247 248 252 252 255 257 256 256 264 267 270 270 273 276 279 282 284 287 292 295 296 299 302 304 307 309 311 314 318 322 322 321 320 321 322 313 305 303 302 310 297
231 235 245 246 249 251 252 256 255 256 257 259 264 267 269 273 277 279 281 284 287 291 293 296 298 300 304 307 309 311 315 318 321 320 321 319 318 318 305 298 302 302 299 296
Height
10875 10878 10880 10882 10882 10883 10883 10885 10886 10886 10887 10888 10890 10894 10896 10899 10902 10907 10911 10912 10909 10908 10910 10909 10915 10872 10883 10877 10878 10872 10876 10865 10864 10861 10847 10836 10829 10824 10814 10809 10799 10790 10779 10768
10870 10871 10874 10876 10877 10877 10878 10880 10881 10881 10882 10881 10884 10884 10888 10891 10894 10900 10903 10904 10901 10901 10900 10897 10920 10898 10849 10877 10876 10867 10859 10856 10855 10849 10842 10830 10822 10816 10807 10794 10784 10773 10762 10750
10863 10865 10868 10869 10870 10872 10873 10874 10875 10876 10877 10877 10878 10880 10880 10882 10887 10892 10894 10895 10895 10897 10897 10898 10889 10883 10873 10860 10861 10862 10858 10854 10848 10837 10827 10820 10813 10803 10789 10779 10765 10757 10745 10734
10857 10859 10862 10863 10864 10866 10867 10869 10870 10870 10870 10872 10871 10873 10876 10878 10881 10883 10888 10887 10887 10887 10895 10897 10893 10882 10870 10863 10855 10852 10850 10843 10833 10818 10805 10792 10782 10771 10762 10755 10746 10734 10726 10714
10849 10853 10856 10857 10857 10859 10859 10862 10864 10864 10866 10866 10865 10866 10868 10873 10875 10877 10878 10879 10878 10876 10876 10881 10879 10874 10866 10860 10854 10848 10840 10828 10813 10799 10787 10775 10764 10754 10744 10733 10724 10711 10703 10694
10842 10845 10848 10849 10851 10852 10853 10856 10857 10860 10860 10862 10857 10859 10859 10864 10869 10875 10869 10870 10872 10871 10868 10866 10865 10862 10856 10850 10842 10833 10820 10806 10794 10782 10770 10760 10749 10738 10727 10714 10704 10693 10684 10679
10831 10836 10839 10841 10844 10847 10847 10849 10850 10853 10853 10854 10849 10851 10851 10857 10861 10865 10864 10863 10861 10861 10859 10855 10851 10845 10840 10834 10824 10813 10801 10790 10778 10768 10757 10747 10735 10723 10711 10700 10690 10678 10668 10659
10824 10829 10831 10832 10836 10838 10840 10842 10844 10845 10845 10843 10845 10843 10843 10848 10847 10855 10852 10850 10850 10847 10843 10839 10834 10829 10823 10816 10807 10797 10785 10774 10764 10753 10742 10730 10719 10709 10698 10686 10675 10664 10653 10642
10813 10818 10819 10825 10826 10831 10833 10836 10832 10837 10837 10835 10834 10833 10835 10840 10836 10836 10841 10839 10837 10834 10829 10824 10819 10813 10806 10800 10792 10781 10770 10759 10748 10739 10727 10716 10706 10697 10686 10675 10663 10653 10642 10632
10801 10807 10811 10815 10817 10821 10824 10823 10825 10829 10829 10827 10824 10826 10828 10833 10833 10828 10827 10825 10822 10819 10816 10811 10805 10800 10792 10783 10776 10765 10754 10744 10734 10724 10715 10705 10695 10684 10675 10664 10654 10642 10633 10626
10786 10797 10800 10804 10811 10808 10812 10815 10818 10818 10820 10819 10817 10807 10819 10821 10824 10820 10818 10818 10809 10807 10803 10799 10792 10786 10778 10769 10761 10751 10741 10731 10721 10713 10704 10695 10685 10676 10665 10655 10645 10634 10626 10620
10773 10781 10788 10794 10798 10798 10802 10805 10806 10809 10809 10811 10811 10802 10808 10808 10807 10811 10804 10810 10801 10792 10792 10787 10780 10773 10764 10756 10746 10738 10728 10719 10710 10702 10693 10685 10676 10666 10655 10645 10635 10625 10618 10611
10760 10772 10777 10781 10789 10789 10790 10791 10795 10799 10800 10803 10802 10802 10789 10798 10794 10799 10793 10795 10794 10783 10781 10775 10767 10760 10751 10743 10735 10725 10718 10710 10700 10693 10684 10675 10666 10656 10645 10634 10624 10615 10607 10602
10744 10756 10768 10771 10773 10775 10778 10782 10786 10788 10790 10789 10791 10789 10791 10790 10787 10786 10776 10775 10775 10770 10769 10764 10756 10748 10740 10731 10724 10715 10707 10699 10691 10682 10674 10665 10656 10645 10634 10623 10613 10604 10596 10590
10729 10745 10753 10754 10756 10763 10768 10769 10773 10778 10780 10780 10777 10775 10784 10786 10787 10783 10782 10762 10763 10758 10756 10752 10744 10736 10730 10722 10714 10706 10698 10689 10682 10674 10664 10655 10644 10633 10622 10611 10601 10591 10584 10580
10711 10733 10734 10743 10746 10751 10754 10760 10765 10766 10766 10767 10764 10761 10777 10775 10775 10771 10769 10754 10761 10759 10742 10738 10732 10725 10719 10713 10705 10697 10689 10680 10672 10663 10654 10644 10634 10622 10611 10600 10590 10581 10576 10572
10699 10715 10721 10737 10732 10732 10743 10753 10753 10756 10754 10752 10751 10750 10760 10757 10761 10756 10748 10743 10750 10746 10735 10728 10722 10716 10710 10703 10696 10688 10679 10671 10662 10653 10643 10633 10622 10611 10600 10590 10580 10573 10569 10565
10693 10702 10708 10719 10713 10718 10744 10736 10741 10741 10744 10742 10739 10739 10743 10751 10745 10744 10744 10736 10731 10728 10724 10719 10712 10707 10701 10694 10686 10678 10670 10661 10653 10643 10632 10622 10611 10600 10589 10580 10571 10565 10562 10558
10682 10684 10692 10697 10702 10714 10719 10728 10727 10726 10726 10726 10733 10730 10722 10741 10726 10732 10729 10722 10720 10717 10712 10708 10703 10697 10691 10684 10677 10669 10661 10651 10642 10632 10622 10611 10599 10588 10579 10571 10563 10557 10554 10550
10669 10674 10677 10682 10689 10698 10706 10712 10711 10711 10710 10717 10710 10722 10720 10724 10717 10720 10713 10711 10710 10707 10702 10698 10693 10688 10682 10674 10667 10659 10650 10641 10631 10622 10611 10599 10588 10578 10568 10560 10553 10548 10544 10541
10664 10664 10654 10661 10668 10682 10691 10697 10699 10697 10696 10703 10703 10705 10705 10704 10708 10708 10706 10700 10698 10696 10692 10688 10684 10678 10671 10664 10656 10648 10640 10631 10622 10612 10600 10588 10578 10568 10557 10549 10543 10539 10537 10533
10641 10648 10647 10649 10652 10666 10681 10680 10686 10681 10681 10685 10689 10698 10695 10691 10697 10696 10695 10692 10689 10686 10682 10678 10673 10667 10660 10653 10645 10638 10630 10621 10612 10602 10589 10578 10567 10558 10548 10539 10534 10530 10529 10526
10624 10638 10634 10634 10644 10657 10667 10670 10680 10674 10673 10672 10677 10690 10682 10683 10685 10684 10683 10681 10679 10676 10672 10668 10662 10656 10650 10643 10635 10628 10619 10611 10601 10591 10580 10569 10559 10549 10541 10534 10528 10525 10523 10519
10610 10618 10619 10625 10642 10645 10657 10655 10659 10657 10655 10661 10667 10669 10672 10672 10673 10672 10671 10669 10667 10665 10661 10657 10651 10645 10639 10632 10625 10617 10609 10601 10591 10581 10571 10561 10552 10543 10536 10529 10522 10519 10517 10513
10601 10605 10610 10620 10629 10639 10642 10637 10643 10643 10643 10650 10656 10656 10662 10660 10661 10661 10660 10657 10655 10653 10650 10646 10641 10635 10628 10622 10615 10607 10599 10591 10582 10572 10563 10553 10544 10536 10529 10524 10518 10513 10510 10505
10583 10595 10590 10596 10620 10625 10629 10635 10625 10626 10632 10638 10643 10645 10649 10649 10650 10649 10648 10646 10644 10642 10639 10635 10630 10624 10617 10611 10604 10597 10589 10580 10572 10563 10554 10545 10536 10529 10522 10516 10513 10505 10500 10496